| time (UTC) | temp C | wind direction | speed KPH | gust KPH | rain 1hr cm | rain 24hr cm | rain mn cm | humidity % | barometer mb |
| 20260510082940 | 12 | 163 | 0.0 | 0.0 | 0.00 | 0.00 | 0.00 | 93 | 1013.0 |
| 20260510082438 | 13 | 163 | 0.0 | 0.0 | 0.00 | 0.00 | 0.00 | 93 | 1012.7 |
| 20260510081937 | 13 | 156 | 0.0 | 0.0 | 0.00 | 0.00 | 0.00 | 92 | 1012.6 |
| 20260510081433 | 13 | 157 | 0.0 | 0.0 | 0.00 | 0.00 | 0.00 | 92 | 1012.6 |
| 20260510080930 | 13 | 149 | 0.0 | 0.0 | 0.00 | 0.00 | 0.00 | 92 | 1012.5 |
| 20260510080428 | 13 | 154 | 0.0 | 0.0 | 0.00 | 0.00 | 0.00 | 92 | 1012.6 |
| 20260510075925 | 13 | 156 | 0.0 | 0.0 | 0.00 | 0.00 | 0.00 | 92 | 1012.5 |
| 20260510075424 | 13 | 169 | 0.0 | 0.0 | 0.00 | 0.00 | 0.00 | 92 | 1012.5 |
| 20260510074920 | 13 | 162 | 0.0 | 0.0 | 0.00 | 0.00 | 0.00 | 92 | 1012.3 |
| 20260510074417 | 13 | 158 | 0.0 | 0.0 | 0.00 | 0.00 | 0.00 | 91 | 1012.1 |
| 20260510073913 | 13 | 156 | 0.0 | 0.0 | 0.00 | 0.00 | 0.00 | 91 | 1012.2 |
| 20260510073409 | 13 | 155 | 0.0 | 0.0 | 0.00 | 0.00 | 0.00 | 91 | 1012.1 |
| 20260510072906 | 13 | 156 | 0.0 | 0.0 | 0.00 | 0.00 | 0.00 | 90 | 1012.1 |
| 20260510072402 | 13 | 164 | 0.0 | 0.0 | 0.00 | 0.00 | 0.00 | 90 | 1012.3 |
| 20260510071858 | 13 | 159 | 0.0 | 0.0 | 0.00 | 0.00 | 0.00 | 90 | 1012.2 |
| 20260510071355 | 13 | 157 | 0.0 | 0.0 | 0.00 | 0.00 | 0.00 | 90 | 1012.1 |
| 20260510070853 | 13 | 159 | 0.0 | 0.0 | 0.00 | 0.00 | 0.00 | 90 | 1011.8 |
| 20260510070350 | 14 | 164 | 0.0 | 0.0 | 0.00 | 0.00 | 0.00 | 90 | 1011.8 |
| 20260510065850 | 14 | 163 | 0.0 | 0.0 | 0.00 | 0.00 | 0.00 | 90 | 1011.9 |
| 20260510065347 | 14 | 153 | 0.0 | 0.0 | 0.00 | 0.00 | 0.00 | 89 | 1011.9 |
| 20260510064843 | 14 | 153 | 0.0 | 0.0 | 0.00 | 0.00 | 0.00 | 89 | 1011.7 |
| 20260510064342 | 14 | 157 | 0.0 | 0.0 | 0.00 | 0.00 | 0.00 | 89 | 1011.8 |
| 20260510063838 | 14 | 154 | 0.0 | 0.0 | 0.00 | 0.00 | 0.00 | 89 | 1012.1 |
| 20260510063334 | 14 | 155 | 0.0 | 0.0 | 0.00 | 0.00 | 0.00 | 89 | 1011.8 |
| 20260510062831 | 14 | 158 | 0.0 | 0.0 | 0.00 | 0.00 | 0.00 | 89 | 1011.9 |
| 20260510062326 | 14 | 154 | 0.0 | 0.0 | 0.00 | 0.00 | 0.00 | 88 | 1011.8 |
| 20260510061821 | 14 | 155 | 0.0 | 0.0 | 0.00 | 0.00 | 0.00 | 88 | 1011.8 |
| 20260510061319 | 15 | 155 | 0.0 | 0.0 | 0.00 | 0.00 | 0.00 | 88 | 1011.8 |
| 20260510060815 | 15 | 157 | 0.0 | 0.0 | 0.00 | 0.00 | 0.00 | 87 | 1011.8 |
| 20260510060312 | 15 | 153 | 0.0 | 0.0 | 0.00 | 0.00 | 0.00 | 87 | 1011.6 |
| 20260510055809 | 15 | 153 | 0.0 | 0.0 | 0.00 | 0.00 | 0.00 | 86 | 1011.8 |
| 20260510055308 | 15 | 153 | 0.0 | 0.0 | 0.00 | 0.00 | 0.00 | 86 | 1011.6 |
| 20260510054807 | 15 | 155 | 0.0 | 0.0 | 0.00 | 0.00 | 0.00 | 85 | 1011.8 |
| 20260510054304 | 15 | 157 | 0.0 | 0.0 | 0.00 | 0.00 | 0.00 | 85 | 1011.7 |
| 20260510053804 | 16 | 159 | 0.0 | 0.0 | 0.00 | 0.00 | 0.00 | 84 | 1011.7 |
| 20260510053254 | 16 | 155 | 0.0 | 0.0 | 0.00 | 0.00 | 0.00 | 83 | 1011.6 |
| 20260510052750 | 16 | 152 | 0.0 | 0.0 | 0.00 | 0.00 | 0.00 | 82 | 1011.7 |
| 20260510052245 | 16 | 151 | 0.0 | 0.0 | 0.00 | 0.00 | 0.00 | 82 | 1011.8 |
| 20260510051742 | 16 | 151 | 0.0 | 0.0 | 0.00 | 0.00 | 0.00 | 81 | 1011.6 |
| 20260510051238 | 16 | 154 | 0.0 | 0.0 | 0.00 | 0.00 | 0.00 | 81 | 1011.7 |
| 20260510050735 | 16 | 148 | 0.0 | 0.0 | 0.00 | 0.00 | 0.00 | 81 | 1011.8 |
| 20260510050233 | 16 | 151 | 0.0 | 0.0 | 0.00 | 0.00 | 0.00 | 81 | 1011.8 |
| 20260510045729 | 16 | 148 | 0.0 | 0.0 | 0.00 | 0.00 | 0.00 | 81 | 1011.9 |
| 20260510045226 | 16 | 153 | 0.0 | 0.0 | 0.00 | 0.00 | 0.00 | 81 | 1011.8 |
| 20260510044722 | 16 | 155 | 0.0 | 0.0 | 0.00 | 0.00 | 0.00 | 80 | 1011.8 |
| 20260510044221 | 17 | 149 | 0.0 | 0.0 | 0.00 | 0.00 | 0.00 | 79 | 1011.9 |
| 20260510043715 | 17 | 146 | 0.0 | 0.0 | 0.00 | 0.00 | 0.00 | 79 | 1011.7 |
| 20260510043212 | 17 | 158 | 0.0 | 0.0 | 0.00 | 0.00 | 0.00 | 78 | 1011.9 |
| 20260510042709 | 17 | 151 | 0.0 | 1.6 | 0.00 | 0.00 | 0.00 | 78 | 1011.9 |
| 20260510042206 | 17 | 153 | 0.0 | 0.0 | 0.00 | 0.00 | 0.00 | 78 | 1011.8 |
| 20260510041703 | 17 | 156 | 0.0 | 0.0 | 0.00 | 0.00 | 0.00 | 78 | 1011.9 |
| 20260510041200 | 17 | 176 | 0.0 | 3.2 | 0.00 | 0.00 | 0.00 | 78 | 1011.7 |
| 20260510040657 | 17 | 151 | 0.0 | 1.6 | 0.00 | 0.00 | 0.00 | 77 | 1011.7 |
| 20260510040154 | 17 | 150 | 0.0 | 3.2 | 0.00 | 0.00 | 0.00 | 78 | 1011.9 |
| 20260510035649 | 17 | 152 | 0.0 | 0.0 | 0.00 | 0.00 | 0.00 | 78 | 1011.7 |
| 20260510035144 | 17 | 153 | 0.0 | 0.0 | 0.00 | 0.00 | 0.00 | 78 | 1011.6 |
| 20260510034641 | 17 | 158 | 0.0 | 0.0 | 0.00 | 0.00 | 0.00 | 78 | 1011.8 |
| 20260510034138 | 17 | 154 | 0.0 | 0.0 | 0.00 | 0.00 | 0.00 | 78 | 1011.6 |
| 20260510033635 | 17 | 153 | 0.0 | 0.0 | 0.00 | 0.00 | 0.00 | 78 | 1011.6 |
| 20260510033133 | 17 | 159 | 0.0 | 0.0 | 0.00 | 0.00 | 0.00 | 78 | 1011.5 |
| 20260510032629 | 17 | 148 | 0.0 | 0.0 | 0.00 | 0.00 | 0.00 | 77 | 1011.4 |
| 20260510032124 | 17 | 153 | 0.0 | 0.0 | 0.00 | 0.00 | 0.00 | 77 | 1011.5 |
| 20260510031619 | 17 | 153 | 0.0 | 0.0 | 0.00 | 0.00 | 0.00 | 76 | 1011.5 |
| 20260510031116 | 17 | 154 | 0.0 | 0.0 | 0.00 | 0.00 | 0.00 | 75 | 1011.6 |
| 20260510030611 | 18 | 156 | 0.0 | 0.0 | 0.00 | 0.00 | 0.00 | 75 | 1011.5 |
| 20260510030109 | 18 | 155 | 0.0 | 0.0 | 0.00 | 0.00 | 0.00 | 75 | 1011.5 |
| 20260510025606 | 18 | 154 | 0.0 | 0.0 | 0.00 | 0.00 | 0.00 | 74 | 1011.3 |
| 20260510025103 | 18 | 154 | 0.0 | 0.0 | 0.00 | 0.00 | 0.00 | 73 | 1011.4 |
| 20260510024600 | 18 | 162 | 0.0 | 0.0 | 0.00 | 0.00 | 0.00 | 72 | 1011.6 |
| 20260510024056 | 18 | 152 | 0.0 | 0.0 | 0.00 | 0.00 | 0.00 | 72 | 1011.4 |
| 20260510023552 | 18 | 154 | 0.0 | 0.0 | 0.00 | 0.00 | 0.00 | 71 | 1011.3 |
| 20260510023050 | 19 | 152 | 0.0 | 0.0 | 0.00 | 0.00 | 0.00 | 70 | 1011.2 |
| 20260510022549 | 19 | 156 | 0.0 | 0.0 | 0.00 | 0.00 | 0.00 | 70 | 1011.3 |
| 20260510022043 | 19 | 147 | 0.0 | 0.0 | 0.00 | 0.00 | 0.00 | 69 | 1011.1 |
| 20260510021540 | 20 | 140 | 0.0 | 0.0 | 0.00 | 0.00 | 0.00 | 69 | 1011.2 |
| 20260510021038 | 20 | 145 | 0.0 | 0.0 | 0.00 | 0.00 | 0.00 | 68 | 1011.0 |
| 20260510020532 | 20 | 140 | 0.0 | 0.0 | 0.00 | 0.00 | 0.00 | 68 | 1011.1 |
| 20260510020028 | 20 | 145 | 0.0 | 1.6 | 0.00 | 0.00 | 0.00 | 67 | 1011.0 |
| 20260510015523 | 20 | 147 | 0.0 | 0.0 | 0.00 | 0.00 | 0.00 | 67 | 1011.0 |
| 20260510015020 | 20 | 143 | 0.0 | 0.0 | 0.00 | 0.00 | 0.00 | 67 | 1011.0 |
| 20260510014517 | 20 | 146 | 0.0 | 1.6 | 0.00 | 0.00 | 0.00 | 67 | 1011.0 |
| 20260510014014 | 20 | 141 | 0.0 | 1.6 | 0.00 | 0.00 | 0.00 | 67 | 1010.9 |
| 20260510013508 | 20 | 109 | 0.0 | 1.6 | 0.00 | 0.00 | 0.00 | 66 | 1010.6 |
| 20260510013004 | 20 | 148 | 0.0 | 1.6 | 0.00 | 0.00 | 0.00 | 66 | 1010.9 |
| 20260510012458 | 20 | 148 | 0.0 | 1.6 | 0.00 | 0.00 | 0.00 | 66 | 1010.6 |
| 20260510011954 | 20 | 78 | 0.0 | 1.6 | 0.00 | 0.00 | 0.00 | 65 | 1010.6 |
| 20260510011449 | 20 | 129 | 0.0 | 1.6 | 0.00 | 0.00 | 0.00 | 64 | 1010.6 |
| 20260510010945 | 21 | 138 | 0.0 | 1.6 | 0.00 | 0.00 | 0.00 | 63 | 1010.7 |
| 20260510010443 | 20 | 138 | 0.0 | 1.6 | 0.00 | 0.00 | 0.00 | 62 | 1010.2 |
| 20260510005939 | 20 | 139 | 0.0 | 1.6 | 0.00 | 0.00 | 0.00 | 63 | 1010.1 |
| 20260510005435 | 20 | 153 | 0.0 | 0.0 | 0.00 | 0.00 | 0.00 | 63 | 1010.1 |
| 20260510004932 | 20 | 156 | 0.0 | 0.0 | 0.00 | 0.00 | 0.00 | 62 | 1010.0 |
| 20260510004430 | 20 | 156 | 0.0 | 0.0 | 0.00 | 0.00 | 0.00 | 61 | 1010.2 |
| 20260510003928 | 21 | 158 | 0.0 | 0.0 | 0.00 | 0.00 | 0.00 | 61 | 1010.2 |
| 20260510003425 | 21 | 156 | 0.0 | 0.0 | 0.00 | 0.00 | 0.00 | 60 | 1010.2 |
| 20260510002924 | 21 | 162 | 0.0 | 0.0 | 0.00 | 0.00 | 0.00 | 59 | 1009.9 |
| 20260510002421 | 21 | 154 | 0.0 | 0.0 | 0.00 | 0.00 | 0.00 | 58 | 1010.0 |
| 20260510001918 | 21 | 156 | 0.0 | 0.0 | 0.00 | 0.00 | 0.00 | 57 | 1009.9 |
| 20260510001415 | 21 | 152 | 0.0 | 0.0 | 0.00 | 0.00 | 0.00 | 57 | 1009.7 |
| 20260510000912 | 22 | 155 | 0.0 | 0.0 | 0.00 | 0.00 | 0.00 | 56 | 1010.0 |
| 20260510000411 | 22 | 161 | 0.0 | 0.0 | 0.00 | 0.00 | 0.00 | 56 | 1009.8 |
| 20260509235905 | 22 | 146 | 0.0 | 0.0 | 0.00 | 0.00 | 0.00 | 55 | 1009.9 |
| 20260509235402 | 22 | 146 | 0.0 | 0.0 | 0.00 | 0.00 | 0.00 | 54 | 1009.8 |
| 20260509234858 | 22 | 151 | 0.0 | 0.0 | 0.00 | 0.00 | 0.00 | 53 | 1009.8 |
| 20260509234356 | 22 | 148 | 0.0 | 3.2 | 0.00 | 0.00 | 0.00 | 53 | 1009.7 |
| 20260509233853 | 23 | 150 | 0.0 | 0.0 | 0.00 | 0.00 | 0.00 | 53 | 1009.7 |
| 20260509233351 | 23 | 151 | 0.0 | 1.6 | 0.00 | 0.00 | 0.00 | 52 | 1009.7 |
| 20260509232846 | 23 | 151 | 0.0 | 0.0 | 0.00 | 0.00 | 0.00 | 52 | 1009.5 |
| 20260509232345 | 23 | 192 | 0.0 | 1.6 | 0.00 | 0.00 | 0.00 | 50 | 1009.7 |
| 20260509231840 | 23 | 176 | 0.0 | 1.6 | 0.00 | 0.00 | 0.00 | 51 | 1009.7 |
| 20260509231337 | 23 | 143 | 0.0 | 0.0 | 0.00 | 0.00 | 0.00 | 51 | 1009.5 |
| 20260509230835 | 23 | 163 | 1.6 | 3.2 | 0.00 | 0.00 | 0.00 | 50 | 1009.4 |
| 20260509230332 | 23 | 202 | 0.0 | 0.0 | 0.00 | 0.00 | 0.00 | 50 | 1009.4 |
| 20260509225827 | 23 | 136 | 0.0 | 0.0 | 0.00 | 0.00 | 0.00 | 50 | 1009.5 |
| 20260509225324 | 23 | 151 | 0.0 | 3.2 | 0.00 | 0.00 | 0.00 | 50 | 1009.6 |
| 20260509224820 | 23 | 155 | 1.6 | 4.8 | 0.00 | 0.00 | 0.00 | 50 | 1009.7 |
| 20260509224316 | 23 | 168 | 3.2 | 4.8 | 0.00 | 0.00 | 0.00 | 50 | 1009.5 |
| 20260509223813 | 23 | 122 | 0.0 | 1.6 | 0.00 | 0.00 | 0.00 | 50 | 1009.4 |
| 20260509223310 | 23 | 173 | 0.0 | 0.0 | 0.00 | 0.00 | 0.00 | 51 | 1009.6 |
| 20260509222807 | 23 | 124 | 0.0 | 3.2 | 0.00 | 0.00 | 0.00 | 51 | 1009.5 |
| 20260509222306 | 23 | 83 | 1.6 | 4.8 | 0.00 | 0.00 | 0.00 | 51 | 1009.7 |
| 20260509221758 | 23 | 139 | 0.0 | 1.6 | 0.00 | 0.00 | 0.00 | 50 | 1009.9 |
| 20260509221255 | 25 | 118 | 0.0 | 3.2 | 0.00 | 0.00 | 0.00 | 49 | 1009.8 |
| 20260509220750 | 24 | 213 | 3.2 | 4.8 | 0.00 | 0.00 | 0.00 | 50 | 1009.7 |
| 20260509220247 | 24 | 164 | 0.0 | 1.6 | 0.00 | 0.00 | 0.00 | 50 | 1009.7 |
| 20260509215742 | 23 | 179 | 0.0 | 0.0 | 0.00 | 0.00 | 0.00 | 51 | 1009.6 |
| 20260509215239 | 23 | 217 | 0.0 | 3.2 | 0.00 | 0.00 | 0.00 | 51 | 1009.5 |
| 20260509214736 | 23 | 171 | 1.6 | 6.4 | 0.00 | 0.00 | 0.00 | 52 | 1009.7 |
| 20260509214234 | 24 | 144 | 3.2 | 4.8 | 0.00 | 0.00 | 0.00 | 50 | 1009.7 |
| 20260509213731 | 24 | 97 | 0.0 | 9.7 | 0.00 | 0.00 | 0.00 | 50 | 1009.7 |
| 20260509213226 | 23 | 111 | 0.0 | 3.2 | 0.00 | 0.00 | 0.00 | 52 | 1009.7 |
| 20260509212724 | 23 | 170 | 0.0 | 4.8 | 0.00 | 0.00 | 0.00 | 51 | 1009.7 |
| 20260509212221 | 24 | 277 | 3.2 | 3.2 | 0.00 | 0.00 | 0.00 | 50 | 1009.6 |
| 20260509211716 | 25 | 176 | 3.2 | 6.4 | 0.00 | 0.00 | 0.00 | 49 | 1009.8 |
| 20260509211213 | 25 | 249 | 4.8 | 9.7 | 0.00 | 0.00 | 0.00 | 48 | 1009.8 |
| 20260509210709 | 25 | 158 | 0.0 | 1.6 | 0.00 | 0.00 | 0.00 | 48 | 1009.6 |
| 20260509210202 | 25 | 260 | 3.2 | 4.8 | 0.00 | 0.00 | 0.00 | 47 | 1009.6 |
| 20260509205701 | 24 | 55 | 0.0 | 4.8 | 0.00 | 0.00 | 0.00 | 49 | 1009.6 |
| 20260509205200 | 25 | 280 | 6.4 | 6.4 | 0.00 | 0.00 | 0.00 | 48 | 1009.4 |
| 20260509204657 | 25 | 124 | 3.2 | 3.2 | 0.00 | 0.00 | 0.00 | 48 | 1009.4 |
| 20260509204153 | 25 | 227 | 1.6 | 9.7 | 0.00 | 0.00 | 0.00 | 48 | 1009.3 |
| 20260509203649 | 25 | 114 | 1.6 | 6.4 | 0.00 | 0.00 | 0.00 | 49 | 1009.4 |
| 20260509203148 | 25 | 133 | 1.6 | 3.2 | 0.00 | 0.00 | 0.00 | 49 | 1009.3 |
| 20260509202643 | 24 | 96 | 0.0 | 4.8 | 0.00 | 0.00 | 0.00 | 49 | 1009.4 |
| 20260509202138 | 25 | 335 | 4.8 | 6.4 | 0.00 | 0.00 | 0.00 | 49 | 1009.5 |
| 20260509201633 | 23 | 146 | 1.6 | 9.7 | 0.00 | 0.00 | 0.00 | 50 | 1009.5 |
| 20260509201131 | 23 | 163 | 1.6 | 6.4 | 0.00 | 0.00 | 0.00 | 50 | 1009.9 |
| 20260509200626 | 23 | 19 | 4.8 | 9.7 | 0.00 | 0.00 | 0.00 | 50 | 1009.9 |
| 20260509200117 | 23 | 226 | 0.0 | 9.7 | 0.00 | 0.00 | 0.00 | 51 | 1010.0 |
| 20260509195613 | 24 | 285 | 3.2 | 9.7 | 0.00 | 0.00 | 0.00 | 51 | 1009.9 |
| 20260509195108 | 23 | 214 | 1.6 | 4.8 | 0.00 | 0.00 | 0.00 | 52 | 1009.9 |
| 20260509194607 | 23 | 312 | 6.4 | 9.7 | 0.00 | 0.00 | 0.00 | 51 | 1010.1 |
| 20260509194105 | 23 | 216 | 3.2 | 4.8 | 0.00 | 0.00 | 0.00 | 52 | 1010.2 |
| 20260509193601 | 23 | 257 | 3.2 | 12.9 | 0.00 | 0.00 | 0.00 | 52 | 1010.3 |
| 20260509193056 | 23 | 145 | 1.6 | 3.2 | 0.00 | 0.00 | 0.00 | 54 | 1010.2 |
| 20260509192553 | 23 | 191 | 1.6 | 3.2 | 0.00 | 0.00 | 0.00 | 52 | 1010.5 |
| 20260509192048 | 22 | 217 | 3.2 | 4.8 | 0.00 | 0.00 | 0.00 | 55 | 1010.4 |
| 20260509191542 | 22 | 128 | 1.6 | 6.4 | 0.00 | 0.00 | 0.00 | 55 | 1010.6 |
| 20260509191038 | 21 | 275 | 1.6 | 4.8 | 0.00 | 0.00 | 0.00 | 55 | 1010.4 |
| 20260509190536 | 22 | 143 | 1.6 | 9.7 | 0.00 | 0.00 | 0.00 | 55 | 1010.5 |
| 20260509190034 | 22 | 174 | 1.6 | 6.4 | 0.00 | 0.00 | 0.00 | 55 | 1010.5 |
| 20260509185531 | 22 | 87 | 0.0 | 4.8 | 0.00 | 0.00 | 0.00 | 55 | 1010.3 |
| 20260509185027 | 22 | 221 | 1.6 | 3.2 | 0.00 | 0.00 | 0.00 | 55 | 1010.8 |
| 20260509184526 | 22 | 138 | 0.0 | 4.8 | 0.00 | 0.00 | 0.00 | 56 | 1010.7 |
| 20260509184022 | 21 | 7 | 4.8 | 9.7 | 0.00 | 0.00 | 0.00 | 55 | 1010.9 |
| 20260509183517 | 21 | 254 | 3.2 | 11.3 | 0.00 | 0.00 | 0.00 | 55 | 1011.0 |
| 20260509183013 | 21 | 159 | 3.2 | 9.7 | 0.00 | 0.00 | 0.00 | 55 | 1011.0 |
| 20260509182509 | 22 | 293 | 6.4 | 9.7 | 0.00 | 0.00 | 0.00 | 54 | 1011.0 |
| 20260509182006 | 21 | 104 | 3.2 | 6.4 | 0.00 | 0.00 | 0.00 | 55 | 1011.1 |
| 20260509181504 | 21 | 169 | 0.0 | 3.2 | 0.00 | 0.00 | 0.00 | 55 | 1011.3 |
| 20260509181001 | 21 | 141 | 0.0 | 9.7 | 0.00 | 0.00 | 0.00 | 56 | 1011.4 |
| 20260509180457 | 21 | 227 | 1.6 | 6.4 | 0.00 | 0.00 | 0.00 | 54 | 1011.3 |
| 20260509175954 | 21 | 165 | 0.0 | 4.8 | 0.00 | 0.00 | 0.00 | 55 | 1011.5 |
| 20260509175450 | 21 | 64 | 4.8 | 9.7 | 0.00 | 0.00 | 0.00 | 55 | 1011.6 |
| 20260509174947 | 21 | 176 | 0.0 | 4.8 | 0.00 | 0.00 | 0.00 | 55 | 1011.6 |
| 20260509174443 | 21 | 268 | 4.8 | 12.9 | 0.00 | 0.00 | 0.00 | 53 | 1011.7 |
| 20260509173938 | 22 | 340 | 4.8 | 6.4 | 0.00 | 0.00 | 0.00 | 52 | 1011.5 |
| 20260509173433 | 22 | 140 | 0.0 | 4.8 | 0.00 | 0.00 | 0.00 | 52 | 1011.5 |
| 20260509172930 | 22 | 296 | 3.2 | 4.8 | 0.00 | 0.00 | 0.00 | 52 | 1011.7 |
| 20260509172427 | 21 | 304 | 0.0 | 3.2 | 0.00 | 0.00 | 0.00 | 53 | 1011.8 |
| 20260509171923 | 21 | 284 | 3.2 | 9.7 | 0.00 | 0.00 | 0.00 | 54 | 1011.6 |
| 20260509171419 | 21 | 168 | 0.0 | 9.7 | 0.00 | 0.00 | 0.00 | 54 | 1011.7 |
| 20260509170915 | 21 | 235 | 1.6 | 4.8 | 0.00 | 0.00 | 0.00 | 54 | 1011.7 |
| 20260509170411 | 21 | 262 | 6.4 | 9.7 | 0.00 | 0.00 | 0.00 | 54 | 1011.7 |
| 20260509165907 | 21 | 155 | 1.6 | 6.4 | 0.00 | 0.00 | 0.00 | 54 | 1011.8 |
| 20260509165401 | 21 | 220 | 1.6 | 9.7 | 0.00 | 0.00 | 0.00 | 55 | 1011.9 |
| 20260509164857 | 21 | 81 | 3.2 | 12.9 | 0.00 | 0.00 | 0.00 | 54 | 1011.8 |
| 20260509164353 | 21 | 57 | 3.2 | 11.3 | 0.00 | 0.00 | 0.00 | 54 | 1012.1 |
| 20260509163849 | 21 | 309 | 6.4 | 9.7 | 0.00 | 0.00 | 0.00 | 54 | 1011.8 |
| 20260509163346 | 21 | 242 | 4.8 | 6.4 | 0.00 | 0.00 | 0.00 | 53 | 1011.9 |
| 20260509162845 | 21 | 259 | 3.2 | 9.7 | 0.00 | 0.00 | 0.00 | 53 | 1012.0 |
| 20260509162343 | 20 | 136 | 1.6 | 4.8 | 0.00 | 0.00 | 0.00 | 55 | 1011.8 |
| 20260509161840 | 20 | 307 | 6.4 | 12.9 | 0.00 | 0.00 | 0.00 | 55 | 1012.1 |
| 20260509161336 | 20 | 95 | 3.2 | 4.8 | 0.00 | 0.00 | 0.00 | 55 | 1011.9 |
| 20260509160832 | 20 | 204 | 0.0 | 4.8 | 0.00 | 0.00 | 0.00 | 56 | 1011.9 |
| 20260509160328 | 20 | 263 | 4.8 | 11.3 | 0.00 | 0.00 | 0.00 | 56 | 1011.9 |
| 20260509155823 | 20 | 334 | 3.2 | 12.9 | 0.00 | 0.00 | 0.00 | 56 | 1012.1 |
| 20260509155320 | 20 | 221 | 4.8 | 6.4 | 0.00 | 0.00 | 0.00 | 55 | 1012.1 |
| 20260509154816 | 20 | 156 | 1.6 | 4.8 | 0.00 | 0.00 | 0.00 | 56 | 1012.2 |
| 20260509154313 | 20 | 70 | 6.4 | 9.7 | 0.00 | 0.00 | 0.00 | 56 | 1012.3 |
| 20260509153810 | 20 | 272 | 1.6 | 6.4 | 0.00 | 0.00 | 0.00 | 55 | 1012.3 |
| 20260509153306 | 20 | 330 | 1.6 | 9.7 | 0.00 | 0.00 | 0.00 | 57 | 1012.2 |
| 20260509152803 | 20 | 291 | 4.8 | 9.7 | 0.00 | 0.00 | 0.00 | 55 | 1012.2 |
| 20260509152259 | 21 | 212 | 9.7 | 12.9 | 0.00 | 0.00 | 0.00 | 54 | 1012.2 |
| 20260509151756 | 21 | 274 | 3.2 | 4.8 | 0.00 | 0.00 | 0.00 | 55 | 1012.2 |
| 20260509151253 | 20 | 118 | 1.6 | 3.2 | 0.00 | 0.00 | 0.00 | 56 | 1012.5 |
| 20260509150751 | 20 | 7 | 4.8 | 11.3 | 0.00 | 0.00 | 0.00 | 57 | 1012.4 |
| 20260509150249 | 20 | 162 | 3.2 | 4.8 | 0.00 | 0.00 | 0.00 | 58 | 1012.5 |
| 20260509145746 | 20 | 162 | 1.6 | 6.4 | 0.00 | 0.00 | 0.00 | 58 | 1012.6 |
| 20260509145245 | 19 | 178 | 3.2 | 6.4 | 0.00 | 0.00 | 0.00 | 59 | 1012.6 |
| 20260509144742 | 18 | 109 | 1.6 | 14.5 | 0.00 | 0.00 | 0.00 | 60 | 1012.8 |
| 20260509144239 | 19 | 250 | 3.2 | 9.7 | 0.00 | 0.00 | 0.00 | 59 | 1012.8 |
| 20260509143736 | 19 | 274 | 4.8 | 6.4 | 0.00 | 0.00 | 0.00 | 58 | 1012.9 |
| 20260509143234 | 19 | 90 | 3.2 | 9.7 | 0.00 | 0.00 | 0.00 | 59 | 1013.0 |
| 20260509142730 | 18 | 181 | 1.6 | 6.4 | 0.00 | 0.00 | 0.00 | 60 | 1013.1 |
| 20260509142226 | 18 | 155 | 3.2 | 3.2 | 0.00 | 0.00 | 0.00 | 61 | 1013.0 |
| 20260509141721 | 18 | 153 | 3.2 | 6.4 | 0.00 | 0.00 | 0.00 | 61 | 1013.0 |
| 20260509141219 | 18 | 348 | 4.8 | 4.8 | 0.00 | 0.00 | 0.00 | 61 | 1013.1 |
| 20260509140715 | 18 | 219 | 3.2 | 6.4 | 0.00 | 0.00 | 0.00 | 61 | 1013.1 |
| 20260509140213 | 18 | 130 | 1.6 | 3.2 | 0.00 | 0.00 | 0.00 | 62 | 1013.2 |
| 20260509135710 | 17 | 190 | 1.6 | 4.8 | 0.00 | 0.00 | 0.00 | 63 | 1013.0 |
| 20260509135209 | 17 | 177 | 1.6 | 4.8 | 0.00 | 0.00 | 0.00 | 64 | 1012.9 |
| 20260509134705 | 16 | 111 | 3.2 | 6.4 | 0.00 | 0.00 | 0.00 | 65 | 1013.1 |
| 20260509134202 | 16 | 54 | 1.6 | 4.8 | 0.00 | 0.00 | 0.00 | 65 | 1013.2 |
| 20260509133700 | 16 | 65 | 3.2 | 4.8 | 0.00 | 0.00 | 0.00 | 65 | 1013.2 |
| 20260509133156 | 16 | 159 | 1.6 | 11.3 | 0.00 | 0.00 | 0.00 | 65 | 1013.0 |
| 20260509132655 | 16 | 193 | 3.2 | 3.2 | 0.00 | 0.00 | 0.00 | 65 | 1013.3 |
| 20260509132153 | 16 | 250 | 4.8 | 6.4 | 0.00 | 0.00 | 0.00 | 65 | 1013.1 |
| 20260509131648 | 16 | 12 | 1.6 | 3.2 | 0.00 | 0.00 | 0.00 | 65 | 1012.8 |
| 20260509131145 | 16 | 117 | 3.2 | 3.2 | 0.00 | 0.00 | 0.00 | 65 | 1013.1 |
| 20260509130641 | 16 | 90 | 1.6 | 9.7 | 0.00 | 0.00 | 0.00 | 66 | 1013.1 |
| 20260509130137 | 16 | 210 | 3.2 | 6.4 | 0.00 | 0.00 | 0.00 | 66 | 1013.2 |
| 20260509125634 | 16 | 57 | 3.2 | 3.2 | 0.00 | 0.00 | 0.00 | 66 | 1013.4 |
| 20260509125131 | 16 | 152 | 1.6 | 4.8 | 0.00 | 0.00 | 0.00 | 67 | 1013.2 |
| 20260509124627 | 16 | 147 | 0.0 | 9.7 | 0.00 | 0.00 | 0.00 | 66 | 1013.3 |
| 20260509124125 | 16 | 68 | 3.2 | 6.4 | 0.00 | 0.00 | 0.00 | 66 | 1013.3 |
| 20260509123623 | 15 | 116 | 1.6 | 4.8 | 0.00 | 0.00 | 0.00 | 66 | 1013.2 |
| 20260509123119 | 15 | 132 | 3.2 | 3.2 | 0.00 | 0.00 | 0.00 | 66 | 1013.1 |
| 20260509122615 | 15 | 99 | 3.2 | 11.3 | 0.00 | 0.00 | 0.00 | 66 | 1013.1 |
| 20260509122113 | 15 | 346 | 4.8 | 6.4 | 0.00 | 0.00 | 0.00 | 66 | 1013.1 |
| 20260509121609 | 15 | 107 | 1.6 | 14.5 | 0.00 | 0.00 | 0.00 | 66 | 1013.1 |
| 20260509121107 | 15 | 23 | 3.2 | 9.7 | 0.00 | 0.00 | 0.00 | 66 | 1013.2 |
| 20260509120604 | 15 | 92 | 1.6 | 4.8 | 0.00 | 0.00 | 0.00 | 66 | 1013.1 |
| 20260509115559 | 15 | 92 | 1.6 | 3.2 | 0.00 | 0.00 | 0.00 | 66 | 1013.3 |
| 20260509115057 | 15 | 63 | 3.2 | 9.7 | 0.00 | 0.00 | 0.00 | 65 | 1013.0 |
| 20260509114555 | 15 | 52 | 0.0 | 9.7 | 0.00 | 0.00 | 0.00 | 65 | 1013.1 |
| 20260509114054 | 15 | 160 | 0.0 | 11.3 | 0.00 | 0.00 | 0.00 | 65 | 1013.3 |
| 20260509113551 | 15 | 60 | 0.0 | 1.6 | 0.00 | 0.00 | 0.00 | 65 | 1013.3 |
| 20260509113049 | 15 | 80 | 1.6 | 6.4 | 0.00 | 0.00 | 0.00 | 63 | 1013.3 |
| 20260509112545 | 15 | 196 | 0.0 | 3.2 | 0.00 | 0.00 | 0.00 | 63 | 1013.2 |
| 20260509112042 | 15 | 116 | 1.6 | 3.2 | 0.00 | 0.00 | 0.00 | 61 | 1013.1 |
| 20260509111539 | 15 | 158 | 0.0 | 4.8 | 0.00 | 0.00 | 0.00 | 61 | 1012.8 |
| 20260509111036 | 15 | 152 | 0.0 | 3.2 | 0.00 | 0.00 | 0.00 | 61 | 1013.0 |
| 20260509110533 | 15 | 100 | 0.0 | 3.2 | 0.00 | 0.00 | 0.00 | 60 | 1012.9 |
| 20260509110030 | 15 | 146 | 0.0 | 6.4 | 0.00 | 0.00 | 0.00 | 60 | 1013.0 |
| 20260509105529 | 15 | 162 | 1.6 | 3.2 | 0.00 | 0.00 | 0.00 | 60 | 1012.9 |
| 20260509105026 | 15 | 86 | 1.6 | 3.2 | 0.00 | 0.00 | 0.00 | 59 | 1012.9 |
| 20260509104522 | 15 | 168 | 6.4 | 9.7 | 0.00 | 0.00 | 0.00 | 59 | 1012.9 |
| 20260509104019 | 15 | 48 | 1.6 | 3.2 | 0.00 | 0.00 | 0.00 | 59 | 1012.9 |
| 20260509103517 | 15 | 131 | 0.0 | 6.4 | 0.00 | 0.00 | 0.00 | 59 | 1012.9 |
| 20260509103015 | 15 | 125 | 0.0 | 4.8 | 0.00 | 0.00 | 0.00 | 59 | 1012.8 |
| 20260509102512 | 15 | 121 | 0.0 | 4.8 | 0.00 | 0.00 | 0.00 | 58 | 1013.0 |
| 20260509102009 | 15 | 150 | 0.0 | 1.6 | 0.00 | 0.00 | 0.00 | 59 | 1012.5 |
| 20260509101505 | 15 | 155 | 0.0 | 1.6 | 0.00 | 0.00 | 0.00 | 58 | 1012.9 |
| 20260509101002 | 15 | 122 | 0.0 | 1.6 | 0.00 | 0.00 | 0.00 | 57 | 1012.7 |
| 20260509100459 | 15 | 140 | 0.0 | 3.2 | 0.00 | 0.00 | 0.00 | 57 | 1012.4 |
| 20260509095956 | 15 | 167 | 1.6 | 3.2 | 0.00 | 0.00 | 0.00 | 56 | 1012.6 |
| 20260509095453 | 15 | 162 | 0.0 | 1.6 | 0.00 | 0.00 | 0.00 | 56 | 1012.4 |
| 20260509094950 | 15 | 172 | 0.0 | 1.6 | 0.00 | 0.00 | 0.00 | 55 | 1012.5 |
| 20260509094447 | 15 | 124 | 0.0 | 1.6 | 0.00 | 0.00 | 0.00 | 56 | 1012.4 |
| 20260509093944 | 15 | 141 | 0.0 | 1.6 | 0.00 | 0.00 | 0.00 | 55 | 1012.4 |
| 20260509093442 | 15 | 155 | 4.8 | 6.4 | 0.00 | 0.00 | 0.00 | 54 | 1012.5 |
| 20260509092939 | 15 | 159 | 0.0 | 4.8 | 0.00 | 0.00 | 0.00 | 54 | 1012.6 |
| 20260509092437 | 15 | 110 | 3.2 | 4.8 | 0.00 | 0.00 | 0.00 | 54 | 1012.7 |
| 20260509091936 | 15 | 224 | 3.2 | 6.4 | 0.00 | 0.00 | 0.00 | 55 | 1012.6 |
| 20260509091432 | 15 | 85 | 1.6 | 3.2 | 0.00 | 0.00 | 0.00 | 55 | 1012.6 |
| 20260509090929 | 15 | 138 | 0.0 | 1.6 | 0.00 | 0.00 | 0.00 | 55 | 1013.0 |
| 20260509090426 | 15 | 186 | 3.2 | 4.8 | 0.00 | 0.00 | 0.00 | 55 | 1012.9 |
| 20260509085924 | 15 | 316 | 4.8 | 4.8 | 0.00 | 0.00 | 0.00 | 55 | 1012.9 |
| 20260509085421 | 15 | 225 | 1.6 | 4.8 | 0.00 | 0.00 | 0.00 | 56 | 1012.9 |
| 20260509084917 | 15 | 145 | 0.0 | 1.6 | 0.00 | 0.00 | 0.00 | 56 | 1012.9 |
| 20260509084414 | 15 | 146 | 0.0 | 3.2 | 0.00 | 0.00 | 0.00 | 56 | 1013.0 |
| 20260509083912 | 15 | 159 | 0.0 | 1.6 | 0.00 | 0.00 | 0.00 | 57 | 1013.0 |